CW5920 Weather Reports


time (UTC)temp
C
wind
direction
speed
KPH
gust
KPH
rain 1hr
cm
rain 24hr
cm
rain mn
cm
humidity
%
barometer
mb
20260903182516 31 135 19.3 32.2 0.00 0.00 0.00 70 1012.9
20260903181516 31 135 17.7 30.6 0.00 0.00 0.00 68 1012.9
20260903180516 31 135 19.3 27.4 0.00 0.00 0.00 67 1013.0
20260903175516 31 113 19.3 27.4 0.00 0.00 0.00 68 1013.1
20260903174516 31 135 19.3 30.6 0.00 0.00 0.00 69 1013.2
20260903173516 31 135 17.7 29.0 0.00 0.00 0.00 69 1013.4
20260903172516 31 113 17.7 27.4 0.00 0.00 0.00 69 1013.5
20260903171556 30 113 14.5 24.1 0.00 0.00 0.00 71 1013.6
20260903170536 30 135 14.5 25.7 0.00 0.00 0.00 71 1013.6
20260903165516 30 135 11.3 20.9 0.00 0.00 0.00 73 1013.6
20260903164516 30 135 12.9 24.1 0.00 0.00 0.00 72 1013.6
20260903163516 30 135 14.5 20.9 0.00 0.00 0.00 73 1013.6
20260903162516 30 113 12.9 22.5 0.00 0.00 0.00 74 1013.6
20260903161536 29 135 11.3 17.7 0.00 0.00 0.00 75 1013.6
20260903160516 29 113 12.9 20.9 0.00 0.00 0.00 76 1013.4
20260903155516 28 135 9.7 17.7 0.00 0.00 0.00 77 1013.5
20260903154516 28 135 8.0 16.1 0.00 0.00 0.00 78 1013.5
20260903153516 28 113 9.7 17.7 0.00 0.00 0.00 79 1013.4
20260903152516 28 158 8.0 16.1 0.00 0.00 0.00 80 1013.5
20260903151516 27 135 8.0 14.5 0.00 0.00 0.00 81 1013.4
20260903150516 27 135 9.7 16.1 0.00 0.00 0.00 82 1013.5
20260903145516 27 135 9.7 16.1 0.00 0.00 0.00 83 1013.5
20260903144516 26 135 3.2 6.4 0.00 0.00 0.00 85 1013.4
20260903143516 26 113 6.4 17.7 0.00 0.00 0.00 85 1013.3
20260903142516 26 113 9.7 16.1 0.00 0.00 0.00 86 1013.2
20260903141516 25 113 8.0 14.5 0.00 0.00 0.00 87 1013.1
20260903140536 25 113 6.4 11.3 0.00 0.00 0.00 88 1013.3
20260903135516 25 113 4.8 11.3 0.00 0.00 0.00 89 1013.2
20260903134516 25 90 3.2 4.8 0.00 0.00 0.00 89 1013.1
20260903133516 24 90 3.2 9.7 0.00 0.00 0.00 90 1013.2
20260903132536 24 90 3.2 9.7 0.00 0.00 0.00 90 1013.3
20260903131516 23 90 1.6 4.8 0.00 0.00 0.00 91 1013.2
20260903130516 23 0.0 3.2 0.00 0.00 0.00 90 1013.2
20260903125536 23 0.0 3.2 0.00 0.00 0.00 90 1013.2
20260903124516 23 0.0 1.6 0.00 0.00 0.00 90 1013.2
20260903123516 23 0.0 3.2 0.00 0.00 0.00 90 1013.2
20260903122516 23 0.0 4.8 0.00 0.00 0.00 90 1013.1
20260903121516 23 0.0 4.8 0.00 0.00 0.00 89 1013.0
20260903120536 23 90 1.6 4.8 0.00 0.00 0.00 89 1013.0
20260903115516 23 90 1.6 4.8 0.00 0.00 0.00 89 1013.0
20260903114516 23 90 3.2 6.4 0.00 0.00 0.00 89 1013.0
20260903113516 23 0.0 4.8 0.00 0.00 0.00 89 1012.9
20260903111516 23 90 3.2 9.7 0.00 0.00 0.00 88 1012.8
20260903110516 23 90 1.6 4.8 0.00 0.00 0.00 88 1012.7
20260903105516 23 90 1.6 4.8 0.00 0.00 0.00 88 1012.7
20260903104516 23 90 1.6 4.8 0.00 0.00 0.00 88 1012.7
20260903103516 23 90 1.6 6.4 0.00 0.00 0.00 88 1012.7
20260903102516 23 0.0 4.8 0.00 0.00 0.00 87 1012.7
20260903101556 23 0.0 3.2 0.00 0.00 0.00 87 1012.8
20260903100556 23 0.0 3.2 0.00 0.00 0.00 87 1012.6
20260903095536 23 113 1.6 6.4 0.00 0.00 0.00 87 1012.7
20260903094516 23 113 1.6 6.4 0.00 0.00 0.00 87 1012.6
20260903093516 23 113 1.6 4.8 0.00 0.00 0.00 87 1012.6
20260903092516 23 113 1.6 4.8 0.00 0.00 0.00 86 1012.5
20260903091516 23 0.0 0.0 0.00 0.00 0.00 85 1012.5
20260903090536 23 0.0 0.0 0.00 0.00 0.00 85 1012.6
20260903085517 24 0.0 0.0 0.00 0.00 0.00 85 1012.6
20260903084517 24 0.0 0.0 0.00 0.00 0.00 85 1012.6
20260903083517 24 0.0 0.0 0.00 0.00 0.00 84 1012.8
20260903082517 24 0.0 0.0 0.00 0.00 0.00 84 1012.8
20260903081517 24 0.0 0.0 0.00 0.00 0.00 83 1012.8
20260903080517 24 0.0 0.0 0.00 0.00 0.00 83 1012.8
20260903075517 24 0.0 0.0 0.00 0.00 0.00 83 1012.9
20260903074517 25 0.0 0.0 0.00 0.00 0.00 82 1012.8
20260903073517 25 0.0 1.6 0.00 0.00 0.00 81 1012.8
20260903072537 25 0.0 1.6 0.00 0.00 0.00 79 1012.9
20260903071537 25 0.0 0.0 0.00 0.00 0.00 79 1012.9
20260903070517 25 0.0 0.0 0.00 0.00 0.00 78 1013.0
20260903065517 25 0.0 0.0 0.00 0.00 0.00 78 1013.2
20260903064517 26 0.0 0.0 0.00 0.00 0.00 77 1013.2
20260903063517 26 0.0 0.0 0.00 0.00 0.00 77 1013.3
20260903062517 26 0.0 4.8 0.00 0.00 0.00 76 1013.4
20260903061517 26 113 1.6 6.4 0.00 0.00 0.00 76 1013.4
20260903060517 26 113 3.2 9.7 0.00 0.00 0.00 75 1013.4
20260903055517 26 90 6.4 14.5 0.00 0.00 0.00 74 1013.5
20260903054517 26 90 9.7 17.7 0.00 0.00 0.00 74 1013.5
20260903053517 27 90 8.0 20.9 0.00 0.00 0.00 74 1013.6
20260903052517 27 113 6.4 12.9 0.00 0.00 0.00 73 1013.6
20260903051517 27 113 8.0 16.1 0.00 0.00 0.00 73 1013.5
20260903050517 27 113 6.4 12.9 0.00 0.00 0.00 72 1013.4
20260903045517 27 90 6.4 12.9 0.00 0.00 0.00 72 1013.4
20260903044517 27 90 6.4 14.5 0.00 0.00 0.00 71 1013.3
20260903043517 27 90 6.4 16.1 0.00 0.00 0.00 71 1013.1
20260903042537 28 90 6.4 12.9 0.00 0.00 0.00 71 1013.3
20260903041517 28 113 6.4 14.5 0.00 0.00 0.00 70 1013.4
20260903040537 28 113 3.2 9.7 0.00 0.00 0.00 69 1013.4
20260903035537 28 113 3.2 9.7 0.00 0.00 0.00 69 1013.4
20260903034517 29 113 3.2 6.4 0.00 0.00 0.00 68 1013.2
20260903033517 29 113 3.2 9.7 0.00 0.00 0.00 67 1013.3
20260903032517 29 113 8.0 17.7 0.00 0.00 0.00 66 1013.3
20260903031517 30 113 11.3 17.7 0.00 0.00 0.00 65 1013.2
20260903030517 30 90 9.7 16.1 0.00 0.00 0.00 64 1013.1
20260903025637 30 113 6.4 19.3 0.00 0.00 0.00 63 1013.0
20260903024517 30 113 4.8 12.9 0.00 0.00 0.00 63 1012.8
20260903023517 30 113 4.8 11.3 0.00 0.00 0.00 62 1012.5
20260903022517 30 113 4.8 12.9 0.00 0.00 0.00 61 1012.5
20260903021517 31 113 6.4 14.5 0.00 0.00 0.00 60 1012.3
20260903020517 31 113 9.7 14.5 0.00 0.00 0.00 60 1012.2
20260903015517 31 113 6.4 12.9 0.00 0.00 0.00 58 1012.0
20260903014517 31 113 11.3 19.3 0.00 0.00 0.00 57 1011.9
20260903013517 32 113 12.9 19.3 0.00 0.00 0.00 56 1011.8
20260903012517 32 113 14.5 20.9 0.00 0.00 0.00 54 1011.7
20260903011517 32 90 12.9 22.5 0.00 0.00 0.00 50 1011.4
20260903010537 33 90 14.5 20.9 0.00 0.00 0.00 48 1011.3
20260903005517 33 90 12.9 22.5 0.00 0.00 0.00 48 1011.3
20260903004517 33 90 16.1 25.7 0.00 0.00 0.00 47 1011.2
20260903003517 34 90 14.5 27.4 0.00 0.00 0.00 46 1011.2
20260903002516 35 90 8.0 19.3 0.00 0.00 0.00 43 1011.1
20260903001537 35 68 12.9 22.5 0.00 0.00 0.00 42 1011.1
20260903000517 35 90 9.7 17.7 0.00 0.00 0.00 41 1011.0
20260902235516 35 68 6.4 14.5 0.00 0.00 0.00 41 1011.1
20260902234517 36 45 8.0 19.3 0.00 0.00 0.00 40 1011.0
20260902233517 36 90 11.3 19.3 0.00 0.00 0.00 39 1011.0
20260902232517 36 90 11.3 19.3 0.00 0.00 0.00 39 1011.0
20260902231516 36 68 9.7 20.9 0.00 0.00 0.00 41 1011.1
20260902230637 36 68 9.7 20.9 0.00 0.00 0.00 41 1011.0
20260902225517 36 45 11.3 22.5 0.00 0.00 0.00 41 1011.1
20260902224517 36 68 8.0 19.3 0.00 0.00 0.00 41 1011.2
20260902223516 36 45 4.8 17.7 0.00 0.00 0.00 41 1011.2
20260902222537 36 0 6.4 16.1 0.00 0.00 0.00 41 1011.3
20260902221517 36 23 4.8 17.7 0.00 0.00 0.00 39 1011.4
20260902220517 36 0 11.3 19.3 0.00 0.00 0.00 39 1011.4
20260902215516 36 45 6.4 19.3 0.00 0.00 0.00 38 1011.5
20260902214536 36 68 8.0 20.9 0.00 0.00 0.00 40 1011.7
20260902213516 37 68 11.3 20.9 0.00 0.00 0.00 40 1011.7
20260902212516 37 23 6.4 17.7 0.00 0.00 0.00 40 1011.8
20260902211517 37 338 9.7 17.7 0.00 0.00 0.00 40 1011.8
20260902210516 37 0 8.0 16.1 0.00 0.00 0.00 40 1011.9
20260902205517 37 0 8.0 19.3 0.00 0.00 0.00 40 1012.1
20260902204516 37 45 8.0 17.7 0.00 0.00 0.00 41 1012.2
20260902203537 36 45 8.0 17.7 0.00 0.00 0.00 40 1012.3
20260902202517 37 0 6.4 16.1 0.00 0.00 0.00 40 1012.4
20260902201517 37 0 6.4 16.1 0.00 0.00 0.00 40 1012.6
20260902200517 37 90 4.8 16.1 0.00 0.00 0.00 41 1012.7
20260902195516 37 68 8.0 19.3 0.00 0.00 0.00 40 1012.9
20260902194516 37 0 4.8 16.1 0.00 0.00 0.00 40 1013.0
20260902193517 37 45 8.0 16.1 0.00 0.00 0.00 39 1013.2
20260902192517 37 338 6.4 17.7 0.00 0.00 0.00 39 1013.5
20260902191517 36 338 6.4 20.9 0.00 0.00 0.00 40 1013.6
20260902190516 36 0 6.4 17.7 0.00 0.00 0.00 41 1013.7
20260902185516 36 90 12.9 22.5 0.00 0.00 0.00 40 1013.9
20260902184517 36 0 3.2 14.5 0.00 0.00 0.00 42 1014.0
20260902183516 36 45 8.0 19.3 0.00 0.00 0.00 41 1014.2